Overview Statistics Trail Chart Weather Telemetry Raw packets
 

This is the latest recevied weather packets stored in our database for station/object DG1GMY-10. If no packets are shown the sender has not sent any weather packets the latest 10 day(s).

<< 5 6 7 8 9 10 >>
Time Temp. Humidity Pressure Rain* Wind** Luminosity Snow
1787999795 23.89° C 53% 1018 hPa - - - -
1787996194 22.78° C 58% 1018.6 hPa - - - -
1787992594 20.56° C 72% 1018.7 hPa - - - -
1787988994 19.44° C 80% 1018.8 hPa - - - -
1787985394 18.33° C 82% 1018.8 hPa - - - -
1787981794 18.33° C 87% 1018.7 hPa - - - -
1787978194 17.78° C 90% 1018.6 hPa - - - -
1787974594 17.22° C 91% 1018.6 hPa - - - -
1787970994 17.22° C 90% 1018.7 hPa - - - -
1787967394 17.78° C 90% 1018.8 hPa - - - -
1787963794 17.78° C 99% 1018.9 hPa - - - -
1787960194 18.33° C 100% 1019.1 hPa - - - -
1787956593 18.89° C 100% 1018.8 hPa - - - -
1787952993 19.44° C 98% 1018.4 hPa - - - -
1787949393 20° C 100% 1017.6 hPa - - - -
1787945793 21.11° C 95% 1016.9 hPa - - - -
1787942193 21.67° C 74% 1016.3 hPa - - - -
1787938593 24.44° C 50% 1015.4 hPa - - - -
1787934993 26.11° C 41% 1014.2 hPa - - - -
1787931393 32.78° C 29% 1013.7 hPa - - - -
1787927792 28.89° C 50% 1014.1 hPa - - - -
1787924192 33.33° C 45% 1014.1 hPa - - - -
1787920592 27.22° C 76% 1014.5 hPa - - - -
1787916992 25.56° C 89% 1014.8 hPa - - - -
1787913392 24.44° C 100% 1014.3 hPa - - - -

* Rain since midnight (hover to see other rain measurements)
** Current wind speed in m/s (hover to see current wind gust speed)